Retour au catalogue

STARLINK-30981

ActifCommunicationsVLEO
NORAD 58494·PAYLOAD·🇺🇸 United States

Lancé Dec 3, 2023 depuis Cape Canaveral Space Force Station

Loading…

Prochains Passages (prochaines 24 heures)

TLE

FraisSource: CelesTrak SupGP

Époque: Sep 15, 2026, 03:06 UTC

1 58494C 23186X   26258.12965278 -.00025337  00000+0 -91748-3 0  2584
2 58494  43.0034  73.5099 0001484 269.6863  24.7104 15.27599465    18

Suivez STARLINK-30981 en temps réel avec AllMySat

Download on the App Store